Location: Unspecified
(38.5482°N, 1.4063°W)
Time: 16:26:58
(UTC+00:00)

ISS - Visible Passes

Search period start: 14 April 2024 00:00
Search period end: 24 April 2024 00:00
Orbit: 413 x 419 km, 51.6° (Epoch: 14 April)

Date Brightness Start Highest point End Pass type
(mag) Time Alt. Az. Time Alt. Az. Time Alt. Az.
19 Apr -1.6 04:19:00 10° S 04:21:34 21° SE 04:24:07 10° E visible
20 Apr -1.0 03:32:01 10° SE 03:33:02 11° SE 03:34:10 10° ESE visible
21 Apr -3.5 04:18:18 18° SW 04:20:36 64° SE 04:23:53 10° ENE visible
22 Apr -2.6 03:31:35 33° SSE 03:31:53 33° SE 03:34:56 10° ENE visible
23 Apr -0.9 02:44:45 14° E 02:44:45 14° E 02:45:37 10° E visible
23 Apr -3.1 04:17:37 19° W 04:19:41 43° NW 04:22:54 10° NE visible
